,,,PA_Meas_PMT16A,,PR_Meas_QMR101_102,,RH_Meas_QMH101,,SR_Meas_QMS101,,TA_Meas_QMH101,,GenWind,,GenWind,
date,time,status,PA,status,PR,status,RH,status,SR,status,TA,status,DirAvg,status,SpdAvg,
2014-08-07, 00:00:04,VALID,1010.9,VALID,0,INVALID,147.192,VALID,0,VALID,22.9926,VALID,70,VALID,0,
2014-08-07, 00:01:04,VALID,1010.87,VALID,0,INVALID,147.337,VALID,0,VALID,23.0121,VALID,70,VALID,0,
2014-08-07, 00:02:04,VALID,1010.87,VALID,0,INVALID,147.589,VALID,0,VALID,22.9909,VALID,70,VALID,0,
2014-08-07, 00:03:04,VALID,1010.84,VALID,0,INVALID,147.818,VALID,0.112112,VALID,23.0316,VALID,70,VALID,0,
2014-08-07, 00:04:04,VALID,1010.86,VALID,0,INVALID,148.001,VALID,0.112112,VALID,23.0316,VALID,70,VALID,0,
2014-08-07, 00:05:04,VALID,1010.83,VALID,0,INVALID,148.138,VALID,0.112112,VALID,23.0511,VALID,70,VALID,0,
2014-08-07, 00:06:04,VALID,1010.83,VALID,0,INVALID,148.214,VALID,0.112112,VALID,23.09,VALID,70,VALID,0,
2014-08-07, 00:07:04,VALID,1010.79,VALID,0,INVALID,148.268,VALID,0.112112,VALID,23.1095,VALID,70,VALID,0,
2014-08-07, 00:08:04,VALID,1010.79,VALID,0,INVALID,148.29,VALID,0.112112,VALID,23.129,VALID,70,VALID,0,
2014-08-07, 00:09:04,VALID,1010.79,VALID,0,INVALID,148.29,VALID,0.112112,VALID,23.129,VALID,70,VALID,0,
2014-08-07, 00:10:04,VALID,1010.78,VALID,0,INVALID,148.26,VALID,0.112112,VALID,23.1485,VALID,70,VALID,0,
2014-08-07, 00:11:04,VALID,1010.8,VALID,0,INVALID,148.161,VALID,0,VALID,23.1485,VALID,70,VALID,0,
2014-08-07, 00:12:04,VALID,1010.79,VALID,0,INVALID,148.138,VALID,0,VALID,23.129,VALID,70,VALID,0,
2014-08-07, 00:13:04,VALID,1010.8,VALID,0,INVALID,148.046,VALID,0,VALID,23.1095,VALID,70,VALID,0,
2014-08-07, 00:14:04,VALID,1010.79,VALID,0,INVALID,147.985,VALID,0,VALID,23.0705,VALID,70,VALID,0,
2014-08-07, 00:15:04,VALID,1010.79,VALID,0,INVALID,148.046,VALID,0,VALID,23.0316,VALID,70,VALID,0,
2014-08-07, 00:16:04,VALID,1010.77,VALID,0,INVALID,148.329,VALID,0,VALID,22.9926,VALID,70,VALID,0,
2014-08-07, 00:17:04,VALID,1010.77,VALID,0,INVALID,148.717,VALID,0,VALID,22.9731,VALID,70,VALID,0,
2014-08-07, 00:18:04,VALID,1010.73,VALID,0,INVALID,149.099,VALID,0,VALID,22.9731,VALID,70,VALID,0,
2014-08-07, 00:19:04,VALID,1010.71,VALID,0,INVALID,149.457,VALID,0,VALID,22.9536,VALID,70,VALID,0,
2014-08-07, 00:20:04,VALID,1010.65,VALID,0,INVALID,149.8,VALID,0,VALID,22.9536,VALID,70,VALID,0,
2014-08-07, 00:21:04,VALID,1010.56,VALID,0,INVALID,150.06,VALID,0,VALID,22.9324,VALID,70,VALID,0,
2014-08-07, 00:22:04,VALID,1010.53,VALID,0,INVALID,150.288,VALID,0,VALID,22.9342,VALID,70,VALID,0,
2014-08-07, 00:23:04,VALID,1010.49,VALID,0,INVALID,150.578,VALID,0,VALID,22.9342,VALID,70,VALID,0,
2014-08-07, 00:24:04,VALID,1010.46,VALID,0,INVALID,150.738,VALID,0,VALID,22.9536,VALID,70,VALID,0,
2014-08-07, 00:25:04,VALID,1010.48,VALID,0,INVALID,150.883,VALID,0,VALID,22.9342,VALID,70,VALID,0,
2014-08-07, 00:26:04,VALID,1010.48,VALID,0,INVALID,150.967,VALID,0,VALID,22.9536,VALID,70,VALID,0,
2014-08-07, 00:27:04,VALID,1010.5,VALID,0,INVALID,151.005,VALID,0,VALID,22.9342,VALID,70,VALID,0,
2014-08-07, 00:28:04,VALID,1010.49,VALID,0,INVALID,151.066,VALID,0,VALID,22.9342,VALID,70,VALID,0,
2014-08-07, 00:29:04,VALID,1010.48,VALID,0,INVALID,151.15,VALID,0,VALID,22.9342,VALID,70,VALID,0,
2014-08-07, 00:30:04,VALID,1010.42,VALID,0,INVALID,151.196,VALID,0,VALID,22.9129,VALID,70,VALID,0,
2014-08-07, 00:31:04,VALID,1010.41,VALID,0,INVALID,151.226,VALID,0,VALID,22.9342,VALID,70,VALID,0,
2014-08-07, 00:32:04,VALID,1010.36,VALID,0,INVALID,151.249,VALID,0,VALID,22.9342,VALID,70,VALID,0,
2014-08-07, 00:33:04,VALID,1010.35,VALID,0,INVALID,151.31,VALID,0,VALID,22.8935,VALID,70,VALID,0,
2014-08-07, 00:34:04,VALID,1010.31,VALID,0,INVALID,151.371,VALID,0,VALID,22.9147,VALID,70,VALID,0,
2014-08-07, 00:35:04,VALID,1010.3,VALID,0,INVALID,151.562,VALID,0,VALID,22.9147,VALID,70,VALID,0,
2014-08-07, 00:36:04,VALID,1010.29,VALID,0,INVALID,151.585,VALID,0,VALID,22.8952,VALID,70,VALID,0,
2014-08-07, 00:37:04,VALID,1010.29,VALID,0,INVALID,151.615,VALID,0,VALID,22.8545,VALID,70,VALID,0,
2014-08-07, 00:38:04,VALID,1010.3,VALID,0,INVALID,151.707,VALID,0,VALID,22.8562,VALID,70,VALID,0,
2014-08-07, 00:39:04,VALID,1010.31,VALID,0,INVALID,151.92,VALID,0,VALID,22.8173,VALID,70,VALID,0,
2014-08-07, 00:40:04,VALID,1010.29,VALID,0,INVALID,152.172,VALID,0,VALID,22.8173,VALID,70,VALID,0,
2014-08-07, 00:41:04,VALID,1010.29,VALID,0,INVALID,152.37,VALID,0,VALID,22.7978,VALID,70,VALID,0,
2014-08-07, 00:42:04,VALID,1010.29,VALID,0,INVALID,152.629,VALID,0,VALID,22.7783,VALID,70,VALID,0,
2014-08-07, 00:43:04,VALID,1010.3,VALID,0,INVALID,152.729,VALID,0,VALID,22.7978,VALID,70,VALID,0,
2014-08-07, 00:44:04,VALID,1010.3,VALID,0,INVALID,152.927,VALID,0,VALID,22.7978,VALID,70,VALID,0,
2014-08-07, 00:45:04,VALID,1010.3,VALID,0,INVALID,153.049,VALID,0,VALID,22.7571,VALID,70,VALID,0,
2014-08-07, 00:46:04,VALID,1010.22,VALID,0,INVALID,153.194,VALID,0,VALID,22.7783,VALID,70,VALID,0,
2014-08-07, 00:47:04,VALID,1010.2,VALID,0,INVALID,153.285,VALID,0,VALID,22.7783,VALID,70,VALID,0,
2014-08-07, 00:48:04,VALID,1010.18,VALID,0,INVALID,153.377,VALID,0,VALID,22.7588,VALID,70,VALID,0,
2014-08-07, 00:49:04,VALID,1010.17,VALID,0,INVALID,153.438,VALID,0,VALID,22.7588,VALID,70,VALID,0,
2014-08-07, 00:50:04,VALID,1010.18,VALID,0,INVALID,153.529,VALID,0,VALID,22.7394,VALID,70,VALID,0,
2014-08-07, 00:51:04,VALID,1010.19,VALID,0,INVALID,153.514,VALID,0,VALID,22.7394,VALID,70,VALID,0,
2014-08-07, 00:52:04,VALID,1010.19,VALID,0,INVALID,153.514,VALID,0,VALID,22.7394,VALID,70,VALID,0,
2014-08-07, 00:53:04,VALID,1010.18,VALID,0,INVALID,153.514,VALID,0.112112,VALID,22.7394,VALID,70,VALID,0,
2014-08-07, 00:54:04,VALID,1010.17,VALID,0,INVALID,153.606,VALID,0,VALID,22.7394,VALID,70,VALID,0,
2014-08-07, 00:55:04,VALID,1010.16,VALID,0,INVALID,153.689,VALID,0,VALID,22.7394,VALID,70,VALID,0,
2014-08-07, 00:56:04,VALID,1010.16,VALID,0,INVALID,153.667,VALID,0,VALID,22.7394,VALID,70,VALID,0,
2014-08-07, 00:57:04,VALID,1010.16,VALID,0,INVALID,153.758,VALID,0,VALID,22.7199,VALID,70,VALID,0,
2014-08-07, 00:58:04,VALID,1010.15,VALID,0,INVALID,153.842,VALID,0,VALID,22.7004,VALID,70,VALID,0,
2014-08-07, 00:59:04,VALID,1010.13,VALID,0,INVALID,153.911,VALID,0,VALID,22.7004,VALID,70,VALID,0,
2014-08-07, 01:00:04,VALID,1010.14,VALID,0,INVALID,154.055,VALID,0,VALID,22.6597,VALID,70,VALID,0,
2014-08-07, 01:01:04,VALID,1010.13,VALID,0,INVALID,154.116,VALID,0,VALID,22.6809,VALID,70,VALID,0,
2014-08-07, 01:02:04,VALID,1010.12,VALID,0,INVALID,154.261,VALID,0,VALID,22.6614,VALID,70,VALID,0,
2014-08-07, 01:03:04,VALID,1010.1,VALID,0,INVALID,154.376,VALID,0,VALID,22.642,VALID,70,VALID,0,
2014-08-07, 01:04:04,VALID,1010.09,VALID,0,INVALID,154.574,VALID,0,VALID,22.6208,VALID,70,VALID,0,
2014-08-07, 01:05:04,VALID,1010.05,VALID,0,INVALID,154.742,VALID,0,VALID,22.642,VALID,70,VALID,0,
2014-08-07, 01:06:04,VALID,1010.04,VALID,0,INVALID,154.91,VALID,0,VALID,22.6225,VALID,70,VALID,0,
2014-08-07, 01:07:04,VALID,1009.99,VALID,0,INVALID,155.07,VALID,0,VALID,22.603,VALID,70,VALID,0,
2014-08-07, 01:08:04,VALID,1009.98,VALID,0,INVALID,155.237,VALID,0.112112,VALID,22.6013,VALID,70,VALID,0,
2014-08-07, 01:09:04,VALID,1009.94,VALID,0,INVALID,155.367,VALID,0,VALID,22.603,VALID,70,VALID,0,
2014-08-07, 01:10:04,VALID,1009.91,VALID,0,INVALID,155.489,VALID,0,VALID,22.603,VALID,70,VALID,0,
2014-08-07, 01:11:04,VALID,1009.9,VALID,0,INVALID,155.634,VALID,0,VALID,22.603,VALID,70,VALID,0,
2014-08-07, 01:12:04,VALID,1009.88,VALID,0,INVALID,155.756,VALID,0,VALID,22.5835,VALID,70,VALID,0,
2014-08-07, 01:13:04,VALID,1009.84,VALID,0,INVALID,155.87,VALID,0,VALID,22.564,VALID,70,VALID,0,
2014-08-07, 01:14:04,VALID,1009.83,VALID,0,INVALID,156.015,VALID,0,VALID,22.5446,VALID,70,VALID,0,
2014-08-07, 01:15:04,VALID,1009.81,VALID,0,INVALID,156.168,VALID,0,VALID,22.5446,VALID,70,VALID,0,
2014-08-07, 01:16:04,VALID,1009.79,VALID,0,INVALID,156.236,VALID,0,VALID,22.5446,VALID,70,VALID,0,
2014-08-07, 01:17:04,VALID,1009.78,VALID,0,INVALID,156.48,VALID,0,VALID,22.5446,VALID,70,VALID,0,
2014-08-07, 01:18:04,VALID,1009.75,VALID,0,INVALID,156.702,VALID,0,VALID,22.5446,VALID,70,VALID,0,
2014-08-07, 01:19:04,VALID,1009.74,VALID,0,INVALID,156.892,VALID,0,VALID,22.564,VALID,70,VALID,0,
2014-08-07, 01:20:04,VALID,1009.7,VALID,0,INVALID,157.014,VALID,0.112112,VALID,22.5623,VALID,70,VALID,0,
2014-08-07, 01:21:04,VALID,1009.71,VALID,0,INVALID,157.144,VALID,0,VALID,22.564,VALID,70,VALID,0,
2014-08-07, 01:22:04,VALID,1009.68,VALID,0,INVALID,157.182,VALID,0,VALID,22.564,VALID,70,VALID,0,
2014-08-07, 01:23:04,VALID,1009.68,VALID,0,INVALID,157.266,VALID,0,VALID,22.564,VALID,70,VALID,0,
2014-08-07, 01:24:04,VALID,1009.69,VALID,0,INVALID,157.296,VALID,0.112112,VALID,22.564,VALID,70,VALID,0,
2014-08-07, 01:25:04,VALID,1009.69,VALID,0,INVALID,157.342,VALID,0,VALID,22.5835,VALID,70,VALID,0,
2014-08-07, 01:26:04,VALID,1009.68,VALID,0,INVALID,157.396,VALID,0,VALID,22.6225,VALID,70,VALID,0,
2014-08-07, 01:27:04,VALID,1009.67,VALID,0,INVALID,157.441,VALID,0,VALID,22.6225,VALID,70,VALID,0,
2014-08-07, 01:28:04,VALID,1009.67,VALID,0,INVALID,157.434,VALID,0,VALID,22.642,VALID,70,VALID,0,
2014-08-07, 01:29:04,VALID,1009.68,VALID,0,INVALID,157.525,VALID,0,VALID,22.642,VALID,70,VALID,0,
2014-08-07, 01:30:04,VALID,1009.69,VALID,0,INVALID,157.556,VALID,0,VALID,22.6614,VALID,70,VALID,0,
2014-08-07, 01:31:04,VALID,1009.74,VALID,0,INVALID,157.571,VALID,0,VALID,22.6614,VALID,70,VALID,0,
2014-08-07, 01:32:04,VALID,1009.73,VALID,0,INVALID,157.533,VALID,0,VALID,22.6614,VALID,70,VALID,0,
2014-08-07, 01:33:04,VALID,1009.75,VALID,0,INVALID,157.51,VALID,0,VALID,22.6614,VALID,70,VALID,0,
2014-08-07, 01:34:04,VALID,1009.77,VALID,0,INVALID,157.563,VALID,0,VALID,22.6614,VALID,70,VALID,0,
2014-08-07, 01:35:04,VALID,1009.73,VALID,0,INVALID,157.617,VALID,0,VALID,22.6614,VALID,70,VALID,0,
2014-08-07, 01:36:04,VALID,1009.76,VALID,0,INVALID,157.723,VALID,0,VALID,22.642,VALID,70,VALID,0,
2014-08-07, 01:37:04,VALID,1009.78,VALID,0,INVALID,157.792,VALID,0,VALID,22.6632,VALID,70,VALID,0,
2014-08-07, 01:38:04,VALID,1009.76,VALID,0,INVALID,157.899,VALID,0,VALID,22.6614,VALID,70,VALID,0,
2014-08-07, 01:39:04,VALID,1009.8,VALID,0,INVALID,158.067,VALID,0,VALID,22.6614,VALID,70,VALID,0,
2014-08-07, 01:40:04,VALID,1009.8,VALID,0,INVALID,158.25,VALID,0,VALID,22.6809,VALID,70,VALID,0,
2014-08-07, 01:41:04,VALID,1009.84,VALID,0,INVALID,158.379,VALID,0,VALID,22.6809,VALID,70,VALID,0,
2014-08-07, 01:42:04,VALID,1009.86,VALID,0,INVALID,158.463,VALID,0,VALID,22.7199,VALID,70,VALID,0,
2014-08-07, 01:43:04,VALID,1009.88,VALID,0,INVALID,158.578,VALID,0,VALID,22.7394,VALID,70,VALID,0,
2014-08-07, 01:44:04,VALID,1009.88,VALID,0,INVALID,158.646,VALID,0,VALID,22.7588,VALID,70,VALID,0,
2014-08-07, 01:45:04,VALID,1009.91,VALID,0,INVALID,158.707,VALID,0,VALID,22.7978,VALID,70,VALID,0,
2014-08-07, 01:46:04,VALID,1009.93,VALID,0,INVALID,158.715,VALID,0,VALID,22.7978,VALID,70,VALID,0,
2014-08-07, 01:47:04,VALID,1009.98,VALID,0,INVALID,158.722,VALID,0,VALID,22.7961,VALID,70,VALID,0,
2014-08-07, 01:48:04,VALID,1010.02,VALID,0,INVALID,158.73,VALID,0,VALID,22.8368,VALID,70,VALID,0,
2014-08-07, 01:49:04,VALID,1010.03,VALID,0,INVALID,158.722,VALID,0,VALID,22.8562,VALID,70,VALID,0,
2014-08-07, 01:50:04,VALID,1010.03,VALID,0,INVALID,158.692,VALID,0.112112,VALID,22.8757,VALID,70,VALID,0,
2014-08-07, 01:51:04,VALID,1010.06,VALID,0,INVALID,158.677,VALID,0,VALID,22.8952,VALID,70,VALID,0,
2014-08-07, 01:52:04,VALID,1010.1,VALID,0,INVALID,158.593,VALID,0,VALID,22.9164,VALID,70,VALID,0,
2014-08-07, 01:53:04,VALID,1010.12,VALID,0,INVALID,158.349,VALID,0.112112,VALID,22.8757,VALID,70,VALID,0,
2014-08-07, 01:54:04,VALID,1010.14,VALID,0,INVALID,158.082,VALID,0,VALID,22.8757,VALID,70,VALID,0,
2014-08-07, 01:55:04,VALID,1010.13,VALID,0,INVALID,157.929,VALID,0,VALID,22.8757,VALID,70,VALID,0,
2014-08-07, 01:56:04,VALID,1010.14,VALID,0,INVALID,157.823,VALID,0.112112,VALID,22.8562,VALID,70,VALID,0,
2014-08-07, 01:57:04,VALID,1010.17,VALID,0,INVALID,157.54,VALID,0,VALID,22.8562,VALID,70,VALID,0,
2014-08-07, 01:58:04,VALID,1010.15,VALID,0,INVALID,157.388,VALID,0.112112,VALID,22.874,VALID,70,VALID,0,
2014-08-07, 01:59:04,VALID,1010.16,VALID,0,INVALID,157.357,VALID,0,VALID,22.8545,VALID,70,VALID,0,
2014-08-07, 02:00:04,VALID,1010.13,VALID,0,INVALID,157.296,VALID,0.112112,VALID,22.8757,VALID,70,VALID,0,
2014-08-07, 02:01:04,VALID,1010.15,VALID,0,INVALID,157.235,VALID,0.112112,VALID,22.8952,VALID,70,VALID,0,
2014-08-07, 02:02:04,VALID,1010.14,VALID,0,INVALID,157.243,VALID,0.112112,VALID,22.8757,VALID,70,VALID,0,
2014-08-07, 02:03:04,VALID,1010.12,VALID,0,INVALID,157.266,VALID,0.112112,VALID,22.8757,VALID,70,VALID,0,
2014-08-07, 02:04:04,VALID,1010.06,VALID,0,INVALID,157.129,VALID,0,VALID,22.8562,VALID,70,VALID,0,
2014-08-07, 02:05:04,VALID,1010.06,VALID,0,INVALID,156.969,VALID,0.112112,VALID,22.8562,VALID,70,VALID,0,
2014-08-07, 02:06:04,VALID,1010.05,VALID,0,INVALID,156.839,VALID,0,VALID,22.8368,VALID,70,VALID,0,
2014-08-07, 02:07:04,VALID,1009.99,VALID,0,INVALID,156.801,VALID,0,VALID,22.8562,VALID,70,VALID,0,
2014-08-07, 02:08:04,VALID,1009.97,VALID,0,INVALID,156.831,VALID,0,VALID,22.8368,VALID,70,VALID,0,
2014-08-07, 02:09:04,VALID,1009.93,VALID,0,INVALID,156.93,VALID,0,VALID,22.8368,VALID,70,VALID,0,
2014-08-07, 02:10:04,VALID,1009.91,VALID,0,INVALID,157.014,VALID,0.112112,VALID,22.8368,VALID,70,VALID,0,
2014-08-07, 02:11:04,VALID,1009.9,VALID,0,INVALID,157.007,VALID,0.112112,VALID,22.8368,VALID,70,VALID,0,
2014-08-07, 02:12:04,VALID,1009.91,VALID,0,INVALID,157.014,VALID,0,VALID,22.8368,VALID,70,VALID,0,
2014-08-07, 02:13:04,VALID,1009.87,VALID,0,INVALID,157.03,VALID,0,VALID,22.8368,VALID,70,VALID,0,
2014-08-07, 02:14:04,VALID,1009.85,VALID,0,INVALID,157.068,VALID,0,VALID,22.8385,VALID,70,VALID,0,
2014-08-07, 02:15:04,VALID,1009.86,VALID,0,INVALID,157.205,VALID,0,VALID,22.8368,VALID,70,VALID,0,
2014-08-07, 02:16:04,VALID,1009.83,VALID,0,INVALID,157.403,VALID,0,VALID,22.8385,VALID,70,VALID,0,
2014-08-07, 02:17:04,VALID,1009.83,VALID,0,INVALID,157.411,VALID,0,VALID,22.7978,VALID,70,VALID,0,
2014-08-07, 02:18:04,VALID,1009.81,VALID,0,INVALID,157.457,VALID,0,VALID,22.7978,VALID,70,VALID,0,
2014-08-07, 02:19:04,VALID,1009.85,VALID,0,INVALID,157.472,VALID,0.112112,VALID,22.7783,VALID,70,VALID,0,
2014-08-07, 02:20:04,VALID,1009.85,VALID,0,INVALID,157.533,VALID,0.112112,VALID,22.7588,VALID,70,VALID,0,
2014-08-07, 02:21:04,VALID,1009.82,VALID,0,INVALID,157.731,VALID,0.112112,VALID,22.7588,VALID,70,VALID,0,
2014-08-07, 02:22:04,VALID,1009.83,VALID,0,INVALID,157.922,VALID,0,VALID,22.7588,VALID,70,VALID,0,
2014-08-07, 02:23:04,VALID,1009.81,VALID,0,INVALID,158.097,VALID,0,VALID,22.7182,VALID,70,VALID,0,
2014-08-07, 02:24:04,VALID,1009.8,VALID,0,INVALID,158.219,VALID,0,VALID,22.7199,VALID,70,VALID,0,
2014-08-07, 02:25:04,VALID,1009.76,VALID,0,INVALID,158.341,VALID,0.112112,VALID,22.7199,VALID,70,VALID,0,
2014-08-07, 02:26:04,VALID,1009.77,VALID,0,INVALID,158.41,VALID,0.112112,VALID,22.7004,VALID,70,VALID,0,
2014-08-07, 02:27:04,VALID,1009.76,VALID,0,INVALID,158.517,VALID,0.112112,VALID,22.7004,VALID,70,VALID,0,
2014-08-07, 02:28:04,VALID,1009.78,VALID,0,INVALID,158.593,VALID,0,VALID,22.6614,VALID,70,VALID,0,
2014-08-07, 02:29:04,VALID,1009.73,VALID,0,INVALID,158.715,VALID,0.112112,VALID,22.6614,VALID,70,VALID,0,
2014-08-07, 02:30:04,VALID,1009.73,VALID,0,INVALID,158.738,VALID,0.112112,VALID,22.642,VALID,70,VALID,0,
2014-08-07, 02:31:04,VALID,1009.73,VALID,0,INVALID,158.844,VALID,0,VALID,22.642,VALID,70,VALID,0,
2014-08-07, 02:32:04,VALID,1009.72,VALID,0,INVALID,158.989,VALID,0,VALID,22.6225,VALID,70,VALID,0,
2014-08-07, 02:33:04,VALID,1009.75,VALID,0,INVALID,159.203,VALID,0,VALID,22.642,VALID,70,VALID,0,
2014-08-07, 02:34:04,VALID,1009.76,VALID,0,INVALID,159.355,VALID,0.112112,VALID,22.6225,VALID,70,VALID,0,
2014-08-07, 02:35:04,VALID,1009.77,VALID,0,INVALID,159.554,VALID,0,VALID,22.642,VALID,70,VALID,0,
2014-08-07, 02:36:04,VALID,1009.77,VALID,0,INVALID,159.676,VALID,0,VALID,22.6614,VALID,70,VALID,0,
2014-08-07, 02:37:04,VALID,1009.78,VALID,0,INVALID,159.821,VALID,0,VALID,22.6614,VALID,70,VALID,0,
2014-08-07, 02:38:04,VALID,1009.76,VALID,0,INVALID,159.882,VALID,0,VALID,22.6614,VALID,70,VALID,0,
2014-08-07, 02:39:04,VALID,1009.78,VALID,0,INVALID,159.851,VALID,0.112112,VALID,22.6614,VALID,70,VALID,0,
2014-08-07, 02:40:04,VALID,1009.77,VALID,0,INVALID,159.866,VALID,0.112112,VALID,22.6597,VALID,70,VALID,0,
2014-08-07, 02:41:04,VALID,1009.77,VALID,0,INVALID,159.828,VALID,0.112112,VALID,22.6809,VALID,70,VALID,0,
2014-08-07, 02:42:04,VALID,1009.79,VALID,0,INVALID,159.798,VALID,0,VALID,22.6809,VALID,70,VALID,0,
2014-08-07, 02:43:04,VALID,1009.77,VALID,0,INVALID,159.775,VALID,0,VALID,22.6809,VALID,70,VALID,0,
2014-08-07, 02:44:04,VALID,1009.76,VALID,0,INVALID,159.729,VALID,0,VALID,22.6809,VALID,70,VALID,0,
2014-08-07, 02:45:04,VALID,1009.76,VALID,0,INVALID,159.752,VALID,0,VALID,22.6597,VALID,70,VALID,0,
2014-08-07, 02:46:04,VALID,1009.71,VALID,0,INVALID,159.775,VALID,0,VALID,22.6597,VALID,70,VALID,0,
2014-08-07, 02:47:04,VALID,1009.7,VALID,0,INVALID,159.843,VALID,0,VALID,22.7199,VALID,70,VALID,0,
2014-08-07, 02:48:04,VALID,1009.68,VALID,0,INVALID,159.904,VALID,0,VALID,22.7199,VALID,70,VALID,0,
2014-08-07, 02:49:04,VALID,1009.71,VALID,0,INVALID,159.843,VALID,0.112112,VALID,22.7394,VALID,70,VALID,0,
2014-08-07, 02:50:04,VALID,1009.72,VALID,0,INVALID,159.836,VALID,0,VALID,22.7394,VALID,70,VALID,0,
2014-08-07, 02:51:04,VALID,1009.74,VALID,0,INVALID,159.813,VALID,0,VALID,22.7394,VALID,70,VALID,0,
2014-08-07, 02:52:04,VALID,1009.76,VALID,0,INVALID,159.866,VALID,0,VALID,22.7588,VALID,70,VALID,0,
2014-08-07, 02:53:04,VALID,1009.74,VALID,0,INVALID,159.95,VALID,0,VALID,22.7783,VALID,70,VALID,0,
2014-08-07, 02:54:04,VALID,1009.78,VALID,0,INVALID,160.004,VALID,0,VALID,22.7978,VALID,70,VALID,0,
2014-08-07, 02:55:04,VALID,1009.75,VALID,0,INVALID,160.141,VALID,0,VALID,22.8173,VALID,70,VALID,0,
2014-08-07, 02:56:04,VALID,1009.76,VALID,0,INVALID,160.187,VALID,0.112112,VALID,22.8368,VALID,70,VALID,0,
2014-08-07, 02:57:04,VALID,1009.76,VALID,0,INVALID,160.202,VALID,0.112112,VALID,22.8562,VALID,70,VALID,0,
2014-08-07, 02:58:04,VALID,1009.78,VALID,0,INVALID,160.209,VALID,0,VALID,22.835,VALID,70,VALID,0,
2014-08-07, 02:59:04,VALID,1009.79,VALID,0,INVALID,160.187,VALID,0.112112,VALID,22.8545,VALID,70,VALID,0,
2014-08-07, 03:00:04,VALID,1009.79,VALID,0,INVALID,160.103,VALID,0,VALID,22.8562,VALID,70,VALID,0,
2014-08-07, 03:01:04,VALID,1009.78,VALID,0,INVALID,160.11,VALID,0,VALID,22.8757,VALID,70,VALID,0,
2014-08-07, 03:02:04,VALID,1009.8,VALID,0,INVALID,160.248,VALID,0.112112,VALID,22.9147,VALID,70,VALID,0,
2014-08-07, 03:03:04,VALID,1009.77,VALID,0,INVALID,160.347,VALID,0.112112,VALID,22.9342,VALID,70,VALID,0,
2014-08-07, 03:04:04,VALID,1009.78,VALID,0,INVALID,160.392,VALID,0.112112,VALID,22.9342,VALID,70,VALID,0,
2014-08-07, 03:05:04,VALID,1009.75,VALID,0,INVALID,160.431,VALID,0.112112,VALID,22.9342,VALID,70,VALID,0,
2014-08-07, 03:06:04,VALID,1009.74,VALID,0,INVALID,160.476,VALID,0,VALID,22.9342,VALID,70,VALID,0,
2014-08-07, 03:07:04,VALID,1009.72,VALID,0,INVALID,160.499,VALID,0.112112,VALID,22.9731,VALID,70,VALID,0,
2014-08-07, 03:08:04,VALID,1009.7,VALID,0,INVALID,160.537,VALID,0,VALID,22.9519,VALID,70,VALID,0,
2014-08-07, 03:09:04,VALID,1009.69,VALID,0,INVALID,160.575,VALID,0.112112,VALID,22.9926,VALID,70,VALID,0,
2014-08-07, 03:10:04,VALID,1009.65,VALID,0,INVALID,160.583,VALID,0,VALID,22.9714,VALID,70,VALID,0,
2014-08-07, 03:11:04,VALID,1009.65,VALID,0,INVALID,160.606,VALID,0.112112,VALID,22.9926,VALID,70,VALID,0,
2014-08-07, 03:12:04,VALID,1009.66,VALID,0,INVALID,160.575,VALID,0.112112,VALID,22.9926,VALID,70,VALID,0,
2014-08-07, 03:13:04,VALID,1009.65,VALID,0,INVALID,160.629,VALID,0,VALID,22.9714,VALID,70,VALID,0,
2014-08-07, 03:14:04,VALID,1009.64,VALID,0,INVALID,160.652,VALID,0.112112,VALID,22.9926,VALID,70,VALID,0,
2014-08-07, 03:15:04,VALID,1009.65,VALID,0,INVALID,160.69,VALID,0,VALID,22.9926,VALID,70,VALID,0,
2014-08-07, 03:16:04,VALID,1009.65,VALID,0,INVALID,160.736,VALID,0.112112,VALID,22.9926,VALID,70,VALID,0,
2014-08-07, 03:17:04,VALID,1009.66,VALID,0,INVALID,160.812,VALID,0,VALID,23.0138,VALID,70,VALID,0,
2014-08-07, 03:18:04,VALID,1009.68,VALID,0,INVALID,160.713,VALID,0,VALID,22.9536,VALID,70,VALID,0,
2014-08-07, 03:19:04,VALID,1009.71,VALID,0,INVALID,160.713,VALID,0,VALID,22.9342,VALID,70,VALID,0,
2014-08-07, 03:20:04,VALID,1009.73,VALID,0,INVALID,160.713,VALID,0.112112,VALID,22.9147,VALID,70,VALID,0,
2014-08-07, 03:21:04,VALID,1009.74,VALID,0,INVALID,160.774,VALID,0.112112,VALID,22.8952,VALID,70,VALID,0,
2014-08-07, 03:22:04,VALID,1009.78,VALID,0,INVALID,160.835,VALID,0,VALID,22.8757,VALID,70,VALID,0,
2014-08-07, 03:23:04,VALID,1009.77,VALID,0,INVALID,160.888,VALID,0.112112,VALID,22.8757,VALID,70,VALID,0,
2014-08-07, 03:24:04,VALID,1009.8,VALID,0,INVALID,161.003,VALID,0,VALID,22.8757,VALID,70,VALID,0,
2014-08-07, 03:25:04,VALID,1009.8,VALID,0,INVALID,161.064,VALID,0,VALID,22.8562,VALID,70,VALID,0,
2014-08-07, 03:26:04,VALID,1009.81,VALID,0,INVALID,161.132,VALID,0.112112,VALID,22.8757,VALID,70,VALID,0,
2014-08-07, 03:27:04,VALID,1009.8,VALID,0,INVALID,161.178,VALID,0.112112,VALID,22.8952,VALID,70,VALID,0,
2014-08-07, 03:28:04,VALID,1009.79,VALID,0,INVALID,161.277,VALID,0.112112,VALID,22.8952,VALID,70,VALID,0,
2014-08-07, 03:29:04,VALID,1009.78,VALID,0,INVALID,161.292,VALID,0,VALID,22.8952,VALID,70,VALID,0,
2014-08-07, 03:30:04,VALID,1009.81,VALID,0,INVALID,161.338,VALID,0.112112,VALID,22.9147,VALID,70,VALID,0,
2014-08-07, 03:31:04,VALID,1009.8,VALID,0,INVALID,161.369,VALID,0.112112,VALID,22.9129,VALID,70,VALID,0,
2014-08-07, 03:32:04,VALID,1009.79,VALID,0,INVALID,161.369,VALID,0,VALID,22.9147,VALID,70,VALID,0,
2014-08-07, 03:33:04,VALID,1009.81,VALID,0,INVALID,161.399,VALID,0,VALID,22.9147,VALID,70,VALID,0,
2014-08-07, 03:34:04,VALID,1009.78,VALID,0,INVALID,161.399,VALID,0.112112,VALID,22.9324,VALID,70,VALID,0,
2014-08-07, 03:35:04,VALID,1009.79,VALID,0,INVALID,161.422,VALID,0,VALID,22.9926,VALID,70,VALID,0,
2014-08-07, 03:36:04,VALID,1009.79,VALID,0,INVALID,161.376,VALID,0.112112,VALID,22.9909,VALID,70,VALID,0,
2014-08-07, 03:37:04,VALID,1009.78,VALID,0,INVALID,161.384,VALID,0.112112,VALID,23.0511,VALID,70,VALID,0,
2014-08-07, 03:38:04,VALID,1009.8,VALID,0,INVALID,161.391,VALID,0.112112,VALID,23.0511,VALID,70,VALID,0,
2014-08-07, 03:39:04,VALID,1009.82,VALID,0,INVALID,161.399,VALID,0,VALID,23.0705,VALID,70,VALID,0,
2014-08-07, 03:40:04,VALID,1009.84,VALID,0,INVALID,161.384,VALID,0.112112,VALID,23.09,VALID,70,VALID,0,
2014-08-07, 03:41:04,VALID,1009.83,VALID,0,INVALID,161.407,VALID,0,VALID,23.09,VALID,70,VALID,0,
2014-08-07, 03:42:04,VALID,1009.83,VALID,0,INVALID,161.43,VALID,0.112112,VALID,23.1095,VALID,70,VALID,0,
2014-08-07, 03:43:04,VALID,1009.82,VALID,0,INVALID,161.391,VALID,0.112112,VALID,23.129,VALID,70,VALID,0,
2014-08-07, 03:44:04,VALID,1009.85,VALID,0,INVALID,161.384,VALID,0,VALID,23.129,VALID,70,VALID,0,
2014-08-07, 03:45:04,VALID,1009.87,VALID,0,INVALID,161.414,VALID,0.112112,VALID,23.1095,VALID,70,VALID,0,
2014-08-07, 03:46:04,VALID,1009.88,VALID,0,INVALID,161.384,VALID,0,VALID,23.09,VALID,70,VALID,0,
2014-08-07, 03:47:04,VALID,1009.88,VALID,0,INVALID,161.361,VALID,0.112112,VALID,23.0705,VALID,70,VALID,0,
2014-08-07, 03:48:04,VALID,1009.89,VALID,0,INVALID,161.369,VALID,0.112112,VALID,23.09,VALID,70,VALID,0,
2014-08-07, 03:49:04,VALID,1009.88,VALID,0,INVALID,161.391,VALID,0,VALID,23.0705,VALID,70,VALID,0,
2014-08-07, 03:50:04,VALID,1009.9,VALID,0,INVALID,161.376,VALID,0,VALID,23.0511,VALID,70,VALID,0,
2014-08-07, 03:51:04,VALID,1009.88,VALID,0,INVALID,161.384,VALID,0.112112,VALID,23.0511,VALID,70,VALID,0,
2014-08-07, 03:52:04,VALID,1009.88,VALID,0,INVALID,161.376,VALID,0.112112,VALID,23.0316,VALID,70,VALID,0,
2014-08-07, 03:53:04,VALID,1009.88,VALID,0,INVALID,161.399,VALID,0,VALID,23.0316,VALID,70,VALID,0,